Pendleton, OR

5:11 AM PDT on August 27, 2016 (GMT -0700)
Eastern Oreg Regional At Pendleton

Weather History for KPDT - October, 2012

Change the Weather History Date:

Saturday, October 27, 2012

  Actual Average Record
Temperature  
Mean Temperature 41 °F 48 °F  
Max Temperature 48 °F 58 °F 77 °F (1906)
Min Temperature 34 °F 38 °F 13 °F (1911)
Degree Days  
Heating Degree Days 24 17  
Month to date heating degree days 367 336  
Since 1 July heating degree days 440 470  
Cooling Degree Days 0 0  
Month to date cooling degree days 0 0  
Year to date cooling degree days 611 634  
Moisture  
Dew Point 44 °F    
Average Humidity 81    
Maximum Humidity 96    
Minimum Humidity 65    
Precipitation  
Precipitation 0.01 in 0.04 in 0.57 in (1916)
Month to date precipitation 1.09 0.83  
Year to date precipitation 11.09 9.49  
Snow  
Snow 0.00 in 0.10 in 0.20 in (1971)
Month to date snowfall T 0.1  
Year to date snowfall 5.9 7.8  
Since 1 July snowfall T 0.1  
Snow Depth 0.00 in    
Sea Level Pressure  
Sea Level Pressure 30.00 in    
Wind  
Wind Speed 5 mph (SSE)    
Max Wind Speed 16 mph    
Max Gust Speed 20 mph    
Visibility 7 miles    
Events Fog , Rain    
T = Trace of Precipitation, MM = Missing Value Source: NWS Daily Summary

Daily Weather History Graph

Daily Weather History Graph

Search for Another Location

Airport or City:

Trip Planner

Search our weather history database for the weather conditions in past years. The results will help you decide how hot, cold, wet, or windy it might be!

Date:

Astronomy

Oct. 27, 2012 Rise Set
Actual Time 7:29 AM PDT 5:48 PM PDT
Civil Twilight 6:58 AM PDT 6:19 PM PDT
Nautical Twilight 6:23 AM PDT 6:54 PM PDT
Astronomical Twilight 5:49 AM PDT 7:28 PM PDT
Moon 4:40 PM PDT 5:24 AM PDT
Length of Visible Light 11h 20m
Length of Day
10h 19m
Waxing Gibbous, 96% of the Moon is Illuminated
Oct 27
Waxing Gibbous
Oct 29
Full
Nov 6
Last Quarter
Nov 13
New
Nov 20
First Quarter

Hourly Weather History & Observations

Time (PDT) Temp. Windchill Dew Point Humidity Pressure Visibility Wind Dir Wind Speed Gust Speed Precip Events Conditions
12:53 AM 44.1 °F 40.1 °F 41.0 °F 89% 30.09 in 10.0 mi SSE 6.9 mph - N/A   Overcast
1:53 AM 44.1 °F 39.0 °F 39.0 °F 82% 30.08 in 10.0 mi South 9.2 mph - N/A   Scattered Clouds
2:53 AM 45.0 °F 41.2 °F 37.9 °F 76% 30.08 in 10.0 mi South 6.9 mph - N/A   Partly Cloudy
3:53 AM 46.0 °F - 37.9 °F 73% 30.06 in 10.0 mi Calm Calm - N/A   Scattered Clouds
4:53 AM 45.0 °F 40.6 °F 37.9 °F 76% 30.06 in 10.0 mi South 8.1 mph - N/A   Overcast
5:53 AM 44.1 °F - 39.0 °F 82% 30.08 in 10.0 mi Calm Calm - N/A   Overcast
6:53 AM 45.0 °F 43.5 °F 37.9 °F 76% 30.08 in 10.0 mi SSW 3.5 mph - N/A   Overcast
7:53 AM 44.1 °F 41.5 °F 39.0 °F 82% 30.09 in 10.0 mi SSE 4.6 mph - N/A   Overcast
8:53 AM 44.1 °F 42.5 °F 39.9 °F 85% 30.11 in 10.0 mi SE 3.5 mph - N/A   Overcast
9:53 AM 46.9 °F - 39.9 °F 77% 30.12 in 3.0 mi WSW 15.0 mph - 0.01 in Rain Rain
10:53 AM 45.0 °F 41.8 °F 42.1 °F 90% 30.11 in 4.0 mi South 5.8 mph - 0.07 in Rain Light Rain
11:44 AM 46.4 °F 44.3 °F 42.8 °F 87% 30.07 in 10.0 mi South 4.6 mph - 0.01 in Rain Light Rain
11:53 AM 46.0 °F 43.1 °F 43.0 °F 89% 30.07 in 10.0 mi SSE 5.8 mph - 0.01 in   Overcast
12:02 PM 46.4 °F 44.3 °F 42.8 °F 87% 30.06 in 10.0 mi SE 4.6 mph - 0.00 in Rain Light Rain
12:53 PM 46.9 °F - 42.1 °F 83% 30.04 in 7.0 mi SE 4.6 mph - 0.00 in Rain Light Rain
1:53 PM 46.0 °F 43.9 °F 42.1 °F 86% 30.01 in 4.0 mi ESE 4.6 mph - 0.04 in Rain Light Rain
2:53 PM 46.4 °F 43.5 °F 44.6 °F 93% 29.97 in 10.0 mi ESE 5.8 mph - N/A   Overcast
3:53 PM 46.9 °F - 45.0 °F 93% 29.95 in 10.0 mi ENE 10.4 mph - 0.00 in   Overcast
4:53 PM 48.0 °F - 46.0 °F 93% 29.94 in 10.0 mi East 11.5 mph - N/A   Overcast
5:53 PM 48.9 °F - 46.0 °F 90% 29.93 in 10.0 mi East 8.1 mph - N/A   Overcast
6:53 PM 46.9 °F - 46.9 °F 100% 29.92 in 4.0 mi SSE 4.6 mph - 0.03 in Rain Light Rain
7:53 PM 48.0 °F - 48.0 °F 100% 29.90 in 4.0 mi SSE 5.8 mph - 0.03 in Rain Light Rain
8:53 PM 51.8 °F - 48.2 °F 88% 29.88 in 10.0 mi SSE 8.1 mph - N/A Rain Light Rain
9:53 PM 54.0 °F - 48.9 °F 83% 29.88 in 9.0 mi South 8.1 mph - 0.01 in Rain Light Rain
10:41 PM 48.2 °F - 48.2 °F 100% 29.88 in 0.8 mi South 9.2 mph - N/A   Mostly Cloudy
10:50 PM 48.2 °F - 48.2 °F 100% 29.88 in 0.2 mi SSE 8.1 mph - 0.01 in Fog Fog
10:53 PM 48.2 °F - 48.2 °F 100% 29.88 in 0.2 mi SSE 8.1 mph - N/A Fog Fog
10:57 PM 48.2 °F - 48.2 °F 100% 29.88 in 1.2 mi SSE 9.2 mph - N/A   Scattered Clouds
10:59 PM 48.2 °F - 48.2 °F 100% 29.88 in 3.0 mi SSE 10.4 mph - N/A   Scattered Clouds
11:53 PM 55.0 °F - 48.9 °F 80% 29.87 in 10.0 mi South 11.5 mph - N/A   Overcast